Norwood, MA

2:36 AM EDT on September 23, 2017 (GMT -0400)
Norwood Memorial

Weather History for KOWD - December, 2012

Change the Weather History Date:

Wednesday, December 12, 2012

  Actual Average Record
Temperature  
Mean Temperature 32 °F -  
Max Temperature 39 °F 41 °F 62 °F (2008)
Min Temperature 26 °F 23 °F 10 °F (2013)
Degree Days  
Heating Degree Days 32    
Moisture  
Dew Point 21 °F    
Average Humidity 66    
Maximum Humidity 88    
Minimum Humidity 41    
Precipitation  
Precipitation 0.00 in - - ()
Sea Level Pressure  
Sea Level Pressure 30.33 in    
Wind  
Wind Speed 2 mph (WNW)    
Max Wind Speed 8 mph    
Max Gust Speed -    
Visibility 10 miles    
Events      
Averages and records for this station are not official NWS values.
T = Trace of Precipitation, MM = Missing Value Source: NWS Daily Summary

Daily Weather History Graph

Daily Weather History Graph

Search for Another Location

Airport or City:

Trip Planner

Search our weather history database for the weather conditions in past years. The results will help you decide how hot, cold, wet, or windy it might be!

Date:

Astronomy

Dec. 12, 2012 Rise Set
Actual Time 7:04 AM EST 4:12 PM EST
Civil Twilight 6:32 AM EST 4:44 PM EST
Nautical Twilight 5:57 AM EST 5:19 PM EST
Astronomical Twilight 5:23 AM EST 5:53 PM EST
Moon 6:04 AM EST (12/12) 3:47 PM EST (12/12)
Length of Visible Light 10h 12m
Length of Day
9h 08m
Waning Crescent, 1% of the Moon is Illuminated
Dec 12
Waning Crescent
Dec 13
New
Dec 20
First Quarter
Dec 28
Full
Jan 4
Last Quarter

Hourly Weather History & Observations

Time (EST) Temp. Windchill Dew Point Humidity Pressure Visibility Wind Dir Wind Speed Gust Speed Precip Events Conditions
12:53 AM 33.1 °F 30.0 °F 19.0 °F 56% 30.17 in 10.0 mi West 3.5 mph - N/A   Clear
1:53 AM 30.9 °F 27.5 °F 19.0 °F 61% 30.19 in 10.0 mi WNW 3.5 mph - N/A   Clear
2:53 AM 30.0 °F 26.5 °F 19.0 °F 64% 30.21 in 10.0 mi WNW 3.5 mph - N/A   Clear
3:53 AM 28.9 °F 23.9 °F 19.9 °F 69% 30.22 in 10.0 mi WNW 4.6 mph - N/A   Clear
4:53 AM 30.0 °F - 19.0 °F 64% 30.25 in 10.0 mi Calm Calm - N/A   Clear
5:53 AM 28.9 °F 23.9 °F 19.0 °F 67% 30.29 in 10.0 mi NW 4.6 mph - N/A   Clear
6:53 AM 27.0 °F - 21.0 °F 78% 30.30 in 10.0 mi Calm Calm - N/A   Clear
7:53 AM 27.0 °F - 21.9 °F 81% 30.33 in 10.0 mi Calm Calm - N/A   Clear
8:53 AM 33.1 °F - 21.0 °F 61% 30.34 in 10.0 mi Calm Calm - N/A   Clear
9:53 AM 35.1 °F 32.2 °F 21.0 °F 57% 30.37 in 10.0 mi NNW 3.5 mph - N/A   Clear
10:53 AM 37.0 °F 31.0 °F 19.9 °F 50% 30.36 in 10.0 mi NW 8.1 mph - N/A   Clear
11:53 AM 37.9 °F - 19.9 °F 48% 30.35 in 10.0 mi Calm Calm - N/A   Clear
12:53 PM 37.9 °F 33.5 °F 21.0 °F 51% 30.34 in 10.0 mi SW 5.8 mph - N/A   Clear
1:53 PM 39.0 °F 36.8 °F 19.0 °F 45% 30.33 in 10.0 mi WSW 3.5 mph - N/A   Clear
2:53 PM 39.9 °F 36.7 °F 18.0 °F 41% 30.34 in 10.0 mi West 4.6 mph - N/A   Clear
3:53 PM 37.9 °F - 19.0 °F 47% 30.36 in 10.0 mi Calm Calm - N/A   Clear
4:53 PM 33.1 °F - 21.9 °F 64% 30.38 in 10.0 mi Calm Calm - N/A   Clear
5:53 PM 30.0 °F - 23.0 °F 75% 30.39 in 10.0 mi Calm Calm - N/A   Clear
6:53 PM 28.9 °F - 23.0 °F 78% 30.40 in 10.0 mi Calm Calm - N/A   Clear
7:53 PM 27.0 °F - 21.9 °F 81% 30.40 in 10.0 mi Calm Calm - N/A   Clear
8:53 PM 27.0 °F - 23.0 °F 85% 30.40 in 10.0 mi Calm Calm - N/A   Clear
9:53 PM 28.0 °F - 23.0 °F 81% 30.43 in 10.0 mi Calm Calm - N/A   Clear
10:53 PM 26.1 °F - 23.0 °F 88% 30.43 in 10.0 mi Calm Calm - N/A   Clear
11:53 PM 26.1 °F - 21.9 °F 84% 30.43 in 10.0 mi Calm Calm - N/A   Clear